Weather History for Hot Springs, VA

Change the Weather History Date:

Thursday, February 14, 2013

  Actual Average Record
Temperature  
Mean Temperature 28 °F -  
Max Temperature 35 °F 36 °F 51 °F (2001)
Min Temperature 21 °F 21 °F 6 °F (1999)
Degree Days  
Heating Degree Days 37    
Moisture  
Dew Point 23 °F    
Average Humidity 81    
Maximum Humidity 100    
Minimum Humidity 56    
Precipitation  
Precipitation 0.00 in - - ()
Sea Level Pressure  
Sea Level Pressure 29.89 in    
Wind  
Wind Speed 14 mph (West)    
Max Wind Speed 23 mph    
Max Gust Speed 30 mph    
Visibility 10 miles    
Events      
Averages and records for this station are not official NWS values.
T = Trace of Precipitation, MM = Missing Value Source: NWS Daily Summary

Daily Weather History Graph

Daily Weather History Graph

Search for Another Location

Airport:

Trip Planner

Search our weather history database for the weather conditions in past years. The results will help you decide how hot, cold, wet, or windy it might be!

Date:

Astronomy

Feb. 14, 2013 Rise Set
Actual Time 7:10 AM EST 5:57 PM EST
Civil Twilight 6:43 AM EST 6:24 PM EST
Nautical Twilight 6:12 AM EST 6:55 PM EST
Astronomical Twilight 5:41 AM EST 7:25 PM EST
Moon 9:16 AM EST (2/14) 10:52 PM EST (2/14)
Length of Visible Light 11h 41m
Length of Day
10h 47m
Waxing Crescent, 21% of the Moon is Illuminated
Feb 14
Waxing Crescent
Feb 17
First Quarter
Feb 25
Full
Mar 4
Last Quarter
Mar 11
New

Hourly Weather History & Observations

Time (EST) Temp. Windchill Dew Point Humidity Pressure Visibility Wind Dir Wind Speed Gust Speed Precip Events Conditions
12:15 AM 26.6 °F 13.8 °F 26.6 °F 100% 29.73 in 0.5 mi WNW 17.3 mph 23.0 mph N/A   Overcast
12:35 AM 26.6 °F 13.8 °F 26.6 °F 100% 29.73 in 3.0 mi WNW 17.3 mph 26.5 mph N/A   Overcast
12:55 AM 26.6 °F 14.3 °F 26.6 °F 100% 29.74 in 10.0 mi WNW 16.1 mph 24.2 mph N/A   Overcast
1:15 AM 26.6 °F 13.4 °F 26.6 °F 100% 29.74 in 10.0 mi West 18.4 mph 23.0 mph N/A   Overcast
1:35 AM 26.6 °F 13.8 °F 26.6 °F 100% 29.75 in 10.0 mi WNW 17.3 mph 24.2 mph N/A   Overcast
1:55 AM 24.8 °F 11.5 °F 24.8 °F 100% 29.77 in 10.0 mi WNW 17.3 mph 21.9 mph N/A   Overcast
2:15 AM 24.8 °F 11.9 °F 24.8 °F 100% 29.77 in 10.0 mi WNW 16.1 mph 26.5 mph N/A   Overcast
2:35 AM 24.8 °F 11.5 °F 24.8 °F 100% 29.78 in 10.0 mi WNW 17.3 mph 24.2 mph N/A   Mostly Cloudy
2:55 AM 23.0 °F 8.3 °F 23.0 °F 100% 29.77 in 10.0 mi WNW 19.6 mph 29.9 mph N/A   Mostly Cloudy
3:15 AM 23.0 °F 9.2 °F 23.0 °F 100% 29.79 in 10.0 mi WNW 17.3 mph 24.2 mph N/A   Mostly Cloudy
3:35 AM 23.0 °F 9.6 °F 21.2 °F 93% 29.80 in 10.0 mi West 16.1 mph 23.0 mph N/A   Mostly Cloudy
3:55 AM 23.0 °F 9.2 °F 21.2 °F 93% 29.82 in 10.0 mi WNW 17.3 mph 21.9 mph N/A   Mostly Cloudy
4:15 AM 21.2 °F 5.6 °F 21.2 °F 100% 29.83 in 10.0 mi West 20.7 mph 25.3 mph N/A   Scattered Clouds
4:35 AM 21.2 °F 4.9 °F 21.2 °F 100% 29.83 in 10.0 mi WNW 23.0 mph 27.6 mph N/A   Scattered Clouds
4:55 AM 21.2 °F 7.8 °F 21.2 °F 100% 29.82 in 10.0 mi WNW 15.0 mph 25.3 mph N/A   Scattered Clouds
5:15 AM 21.2 °F 4.9 °F 21.2 °F 100% 29.84 in 10.0 mi WNW 23.0 mph 26.5 mph N/A   Mostly Cloudy
5:35 AM 21.2 °F 5.2 °F 21.2 °F 100% 29.84 in 10.0 mi WNW 21.9 mph - N/A   Mostly Cloudy
5:55 AM 21.2 °F 6.0 °F 19.4 °F 93% 29.84 in 10.0 mi WNW 19.6 mph 25.3 mph N/A   Scattered Clouds
6:15 AM 21.2 °F 6.8 °F 19.4 °F 93% 29.84 in 10.0 mi WNW 17.3 mph 23.0 mph N/A   Clear
6:35 AM 21.2 °F 7.3 °F 19.4 °F 93% 29.84 in 10.0 mi WNW 16.1 mph 20.7 mph N/A   Clear
6:55 AM 21.2 °F 8.9 °F 19.4 °F 93% 29.85 in 10.0 mi West 12.7 mph - N/A   Scattered Clouds
7:15 AM 21.2 °F 6.4 °F 19.4 °F 93% 29.86 in 10.0 mi West 18.4 mph - N/A   Scattered Clouds
7:35 AM 21.2 °F 7.8 °F 19.4 °F 93% 29.87 in 10.0 mi West 15.0 mph - N/A   Scattered Clouds
7:55 AM 21.2 °F 6.4 °F 19.4 °F 93% 29.87 in 10.0 mi WNW 18.4 mph - N/A   Scattered Clouds
8:15 AM 21.2 °F 7.8 °F 21.2 °F 100% 29.88 in 10.0 mi West 15.0 mph 25.3 mph N/A   Mostly Cloudy
8:35 AM 21.2 °F 8.9 °F 21.2 °F 100% 29.90 in 10.0 mi WNW 12.7 mph - N/A   Overcast
8:55 AM 21.2 °F 10.9 °F 21.2 °F 100% 29.90 in 10.0 mi WNW 9.2 mph - N/A   Mostly Cloudy
9:15 AM 23.0 °F 13.1 °F 21.2 °F 93% 29.92 in 10.0 mi West 9.2 mph - N/A   Mostly Cloudy
9:35 AM 23.0 °F 17.0 °F 21.2 °F 93% 29.92 in 10.0 mi WSW 4.6 mph - N/A   Overcast
10:15 AM 24.8 °F 20.5 °F 23.0 °F 93% 29.93 in 10.0 mi West 3.5 mph - N/A   Mostly Cloudy
10:55 AM 26.6 °F 21.2 °F 24.8 °F 93% 29.93 in 10.0 mi West 4.6 mph - N/A   Scattered Clouds
11:15 AM 26.6 °F 22.6 °F 23.0 °F 86% 29.94 in 10.0 mi West 3.5 mph - N/A   Clear
11:35 AM 28.4 °F 22.2 °F 23.0 °F 80% 29.95 in 10.0 mi West 5.8 mph - N/A   Clear
11:55 AM 28.4 °F 22.2 °F 24.8 °F 86% 29.94 in 10.0 mi West 5.8 mph - N/A   Clear
12:15 PM 30.2 °F 21.9 °F 23.0 °F 75% 29.94 in 10.0 mi West 9.2 mph - N/A   Clear
12:35 PM 30.2 °F 22.6 °F 24.8 °F 80% 29.93 in 10.0 mi West 8.1 mph - N/A   Clear
12:55 PM 30.2 °F 22.6 °F 24.8 °F 80% 29.92 in 10.0 mi West 8.1 mph - N/A   Clear
1:35 PM 32.0 °F 24.2 °F 24.8 °F 75% 29.92 in 10.0 mi West 9.2 mph - N/A   Clear
1:55 PM 33.8 °F 26.4 °F 24.8 °F 70% 29.92 in 10.0 mi West 9.2 mph - N/A   Clear
2:15 PM 33.8 °F 27.0 °F 24.8 °F 70% 29.92 in 10.0 mi West 8.1 mph - N/A   Clear
2:35 PM 33.8 °F 24.8 °F 24.8 °F 70% 29.92 in 10.0 mi West 12.7 mph - N/A   Clear
2:55 PM 33.8 °F 27.0 °F 24.8 °F 70% 29.92 in 10.0 mi West 8.1 mph - N/A   Clear
3:15 PM 35.6 °F 28.6 °F 24.8 °F 65% 29.91 in 10.0 mi West 9.2 mph - N/A   Clear
3:35 PM 33.8 °F 27.7 °F 24.8 °F 70% 29.90 in 10.0 mi West 6.9 mph - N/A   Clear
3:55 PM 35.6 °F 31.7 °F 23.0 °F 60% 29.90 in 10.0 mi West 4.6 mph - N/A   Clear
4:15 PM 35.6 °F 29.9 °F 24.8 °F 65% 29.91 in 10.0 mi West 6.9 mph - N/A   Clear
4:35 PM 35.6 °F 27.1 °F 23.0 °F 60% 29.92 in 10.0 mi WSW 12.7 mph - N/A   Clear
4:55 PM 35.6 °F 27.5 °F 23.0 °F 60% 29.92 in 10.0 mi West 11.5 mph - N/A   Clear
5:15 PM 35.6 °F 28.0 °F 23.0 °F 60% 29.92 in 10.0 mi WSW 10.4 mph - N/A   Clear
5:35 PM 35.6 °F 29.2 °F 23.0 °F 60% 29.92 in 10.0 mi West 8.1 mph - N/A   Clear
5:55 PM 33.8 °F 28.6 °F 23.0 °F 65% 29.93 in 10.0 mi WSW 5.8 mph - N/A   Clear
6:15 PM 32.0 °F 26.4 °F 21.2 °F 64% 29.94 in 10.0 mi WSW 5.8 mph - N/A   Clear
6:35 PM 33.8 °F 27.0 °F 21.2 °F 60% 29.94 in 10.0 mi WSW 8.1 mph - N/A   Clear
6:55 PM 33.8 °F 27.0 °F 21.2 °F 60% 29.95 in 10.0 mi WSW 8.1 mph - N/A   Clear
7:15 PM 33.8 °F 25.8 °F 21.2 °F 60% 29.95 in 10.0 mi WSW 10.4 mph - N/A   Clear
7:35 PM 33.8 °F 24.8 °F 21.2 °F 60% 29.95 in 10.0 mi West 12.7 mph - N/A   Clear
7:55 PM 33.8 °F 24.3 °F 21.2 °F 60% 29.95 in 10.0 mi West 13.8 mph 18.4 mph N/A   Clear
8:15 PM 33.8 °F 24.8 °F 21.2 °F 60% 29.95 in 10.0 mi West 12.7 mph - N/A   Clear
8:35 PM 35.6 °F 26.6 °F 21.2 °F 56% 29.95 in 10.0 mi West 13.8 mph - N/A   Clear
8:55 PM 33.8 °F 23.9 °F 23.0 °F 65% 29.95 in 10.0 mi West 15.0 mph 18.4 mph N/A   Clear
9:15 PM 33.8 °F 24.3 °F 23.0 °F 65% 29.95 in 10.0 mi West 13.8 mph 18.4 mph N/A   Clear
9:35 PM 33.8 °F 24.3 °F 24.8 °F 70% 29.95 in 10.0 mi West 13.8 mph - N/A   Clear
9:55 PM 33.8 °F 24.3 °F 24.8 °F 70% 29.94 in 10.0 mi West 13.8 mph 18.4 mph N/A   Clear
10:15 PM 33.8 °F 23.5 °F 24.8 °F 70% 29.94 in 10.0 mi West 16.1 mph 21.9 mph N/A   Clear
10:35 PM 33.8 °F 24.8 °F 24.8 °F 70% 29.94 in 10.0 mi West 12.7 mph 20.7 mph N/A   Clear
10:55 PM 33.8 °F 23.9 °F 24.8 °F 70% 29.95 in 10.0 mi West 15.0 mph 20.7 mph N/A   Clear
11:15 PM 33.8 °F 24.8 °F 26.6 °F 75% 29.95 in 10.0 mi West 12.7 mph 18.4 mph N/A   Clear
11:35 PM 33.8 °F 24.3 °F 26.6 °F 75% 29.95 in 10.0 mi West 13.8 mph - N/A   Clear
11:55 PM 33.8 °F 24.8 °F 24.8 °F 70% 29.95 in 10.0 mi West 12.7 mph - N/A   Clear